[Iaude] MPEC N31: 2013 NK [a=2.38,e=0.46,i=3.3,H=21.41]
    mpec at cfa.harvard.edu 
    mpec at cfa.harvard.edu
       
    Thu Jul  4 10:16:05 EDT 2024
    
    
  
M.P.E.C. 2024-N31                                  Issued 2024 July 4, 14:14 UT
     The Minor Planet Electronic Circulars contain information on unusual
         minor planets, routine data on comets and natural satellites,
         and occasional editorial announcements.  They are published
    on behalf of Division F of the International Astronomical Union by the
          Minor Planet Center, Smithsonian Astrophysical Observatory,
                          Cambridge, MA 02138, U.S.A.
			  
             Prepared using the Tamkin Foundation Computer Network
                              MPC at CFA.HARVARD.EDU
            URL https://www.minorplanetcenter.net/    ISSN 1523-6714
                                    2013 NK                                     
                            Revision to MPEC 2013-N5                            
Additional Observations:
     K13N00K  C2024 06 02.56464520 02 55.607-19 47 33.94         21.81GVEN031F52
     K13N00K  C2024 06 02.57516320 02 56.493-19 47 27.83         22.57GVEN031F52
     K13N00K  C2024 06 02.58569320 02 57.380-19 47 22.19         23.47GVEN031F52
     K13N00K  C2024 06 07.52888720 10 20.767-18 57 49.21         23.45GVEN031F51
     K13N00K  C2024 06 07.54055220 10 21.743-18 57 42.16         21.94GVEN031F51
     K13N00K  C2024 06 28.49228820 37 54.011-14 39 20.74         21.29wXEN031F51
     K13N00K  C2024 06 28.50400120 37 54.706-14 39 10.48         21.25wXEN031F51
     K13N00K  C2024 06 28.51571520 37 55.434-14 39 00.67         21.22wXEN031F51
     K13N00K 0C2024 07 02.46229320 42 22.611-13 41 16.82         21.22GVEN031T12
     K13N00K 0C2024 07 02.46279820 42 22.640-13 41 16.36         21.44GVEN031T12
     K13N00K 0C2024 07 02.46332020 42 22.671-13 41 15.90         21.19GVEN031T12
     K13N00K 0C2024 07 02.46399420 42 22.711-13 41 15.30         20.74GVEN031T12
     K13N00K  C2024 07 02.52823020 42 26.405-13 40 17.98         21.13wXEN031F52
     K13N00K  C2024 07 02.54141820 42 27.144-13 40 06.19         21.21wXEN031F52
     K13N00K  C2024 07 02.55461120 42 27.899-13 39 54.25         21.38wXEN031F52
Observer details:
F51 Pan-STARRS 1, Haleakala.  Observers J. Herman, T. Lowe, P. Minguez, A.
    Schultz, I. Smith.  Measurers K. Chambers, T. de Boer, J. Fairlamb, H.
    Gao, M. Huber, C.-C. Lin, E. Magnier, Y. Ramanjooloo, R. Wainscoat, R.
    Weryk.  1.8-m Ritchey-Chretien + CCD.
F52 Pan-STARRS 2, Haleakala.  Observers J. Herman, T. Lowe, P. Minguez, A.
    Schultz, I. Smith.  Measurers K. Chambers, T. de Boer, J. Fairlamb, H.
    Gao, M. Huber, C.-C. Lin, E. Magnier, Y. Ramanjooloo, R. Wainscoat, R.
    Weryk.  1.8-m Ritchey-Chretien + CCD.
T12 University of Hawaii 88-inch telescope, Maunakea.  Observer D. J. Tholen.
    2.24-m f/10.1 reflector + 2112 x 2112 pixels STA1600 10k CCD.
First and last observations above in comparison with prediction:
Residuals in seconds of arc, reference and Delta-T
240602 F52 11.2+  3.0+    240702 F52 18.6+  5.7+    E2024-G51   +0.00 days
Orbital elements:
2013 NK                                                  Earth MOID = 0.2680 AU
Epoch 2024 Mar. 31.0 TT = JDT 2460400.5                 Veres                   
M 319.78651              (2000.0)            P               Q                  
n   0.26918225     Peri.   67.31071     +0.88632503     +0.45958983             
a   2.3755916      Node   265.28860     -0.44297005     +0.80588043             
e   0.4645384      Incl.    3.25649     -0.13492769     +0.37327459             
P   3.66           H   21.41          G   0.15           U   0                  
Residuals in seconds of arc
130701 F51  0.1+  0.1-    130715 204  0.0   0.3-    130906 H21  0.8+  0.1-
130701 F51  0.1-  0.2+    130728 291  0.2-  0.2+    130906 H21  0.9+  0.2+
130701 F51  0.1-  0.0     130728 291  0.1-  0.1+    130913 H21  0.1-  0.2+
130701 F51  0.0   0.1+    130728 291  0.0   0.1+    130913 H21  0.3-  0.1+
130702 F51  0.1-  0.0     130728 291  0.3-  0.1+    130913 H21  0.0   0.3+
130702 F51  0.1+  0.2-    130805 H21  0.1-  0.1-    130924 H21  0.3+  0.4+
130702 F51  0.0   0.1+    130805 H21  0.1-  0.0     130924 H21  0.0   0.1+
130702 Q64  0.1-  0.1-    130805 H21  0.1+  0.1+    130924 H21  0.0   0.1-
130702 Q64  0.3+  0.2-    130806 807  0.1+  0.1+    131026 H21  0.0   0.5+
130702 Q64  0.2+  0.2-    130806 807  0.1+  0.1+    131026 H21  0.2+  0.3+
130702 Q64  0.0   0.1-    130806 807  0.2+  0.1+    131026 H21  0.4+  0.2+
130702 Q64  0.1+  0.0     130806 807  0.3-  0.0     131103 H21  0.3-  0.1-
130702 Q64  0.2+  0.1-    130806 807  0.0   0.0     131103 H21  0.3-  0.2+
130702 Q64  0.2+  0.2-    130807 474  0.1-  0.1+    131103 H21  0.1+  0.0
130702 Q64  0.0   0.0     130807 474  0.0   0.6-    131108 H21  0.4-  0.5-
130703 807  0.3+  0.1+    130807 474  0.4-  0.2+    131108 H21  0.0   0.8-
130703 807  0.3+  0.1-    130811 H21  0.1-  0.2-    131108 H21  0.3-  1.0-
130703 807  0.0   0.1-    130811 H21  0.1+  0.1-    240602 F52  0.1+  0.1+
130704 807  0.1+  0.1+    130811 H21  0.2-  0.4-    240602 F52  0.2-  0.2+
130704 807  0.3-  0.1+    130815 H21  0.1+  0.2+    240602 F52  0.4-  0.3-
130704 807  0.1-  0.1+    130815 H21  0.1-  0.2-    240607 F51  0.1-  0.1-
130706 291  0.2+  0.1-    130815 H21  0.6-  0.2+    240607 F51  0.3+  0.3-
130706 291  0.2+  0.3+    130815 F51  0.0   0.0     240628 F51  0.1+  0.1-
130708 474  0.2+  0.6-    130815 F51  0.1+  0.1+    240628 F51 (0.2-  0.2+)
130708 474  0.1-  0.3-    130815 F51 (0.3-  0.3+)   240628 F51  0.1-  0.0
130708 474  0.2+  0.3+    130816 F51  0.1-  0.1-    240702 T12  0.0   0.0
130711 H21  0.3+  0.2-    130816 F51 (0.4-  0.1-)   240702 T12  0.0   0.0
130711 H21  0.2+  0.0     130816 F51  0.0   0.0     240702 T12  0.0   0.0
130711 H21  0.4+  0.3-    130816 F51  0.0   0.1+    240702 T12  0.0   0.0
130712 F51  0.0   0.0     130826 H21  0.3-  0.3-    240702 F52  0.1+  0.1+
130712 F51  0.1+  0.1-    130826 H21  0.1-  0.3-    240702 F52  0.1-  0.0
130712 F51  0.1-  0.0     130826 H21  0.3-  0.2-    240702 F52  0.1-  0.0
130712 F51 (0.2-  0.5-)   130906 H21 (0.7+  0.6-)
130715 204  0.2+  0.5-    130906 H21  0.4+  0.3-
Ephemeris:
2013 NK                  a,e,i = 2.38, 0.46, 3                   q = 1.2720
Date    TT    R. A. (2000) Decl.     Delta      r    Elong.  Phase     V
2024 06 04    20 05 06.2 -19 33 28   0.6350  1.5269   134.2    28.4    22.6
...
2024 06 19    20 26 11.8 -16 46 17   0.5066  1.4531   143.0    24.9    21.9
...
2024 06 27    20 36 08.8 -15 00 16   0.4495  1.4172   147.8    22.5    21.5
...
2024 07 03    20 42 57.3 -13 33 02   0.4118  1.3922   151.4    20.5    21.2
2024 07 04    20 44 02.0 -13 17 53   0.4059  1.3883   152.0    20.1    21.2
2024 07 05    20 45 05.7 -13 02 34   0.4002  1.3843   152.6    19.8    21.1
...
2024 07 11    20 51 09.6 -11 27 28   0.3686  1.3618   156.1    17.6    20.8
...
2024 07 19    20 58 32.4 -09 13 22   0.3333  1.3352   160.6    14.6    20.5
...
2024 08 03    21 11 02.1 -04 55 18   0.2882  1.2969   166.7    10.4    19.9
A. U. Tomatic                (C) Copyright 2024 MPC           M.P.E.C. 2024-N31
    
    
More information about the Iaude
mailing list